sat.trackr.live / text

‹ back to catalog

STARLINK-31437

NORAD 60057 · 2024-112V

PAYLOAD ACTIVE UNKNOWN

§ Identity

Operator
Country
US
Launch date
2024-06-08
Launch site
AFWTR
Launch vehicle
Mass (kg)
RCS (m²)

Purposes: comms

External: N2YO · Heavens-Above · Gunter

§ Orbital elements

Epoch: 2026-05-25T02:43:54.313248Z

Period
94.11 min
Inclination
53.1599°
Eccentricity
0.0001188
Mean motion
15.30189585 rev/d
Perigee alt
474.4 km
Apogee alt
476.1 km
Semi-major
6,853.4 km
B*
7.3462e-5
RAAN
83.2852°
Arg perigee
87.3696°
Mean anomaly
272.7441°
Rev number
11,029

§ Raw data

STARLINK-314371 60057U 24112V   26145.11382307  .00001817  00000+0  73462-4 0  99932 60057  53.1599  83.2852 0001188  87.3696 272.7441 15.30189585110292

JSON: /api/v1/satellites/60057 · /tle

For live sub-satellite position, see the globe view (requires WebGL).

§ Visibility from observer

Set your observer location to see the next 7 days of passes ≥ 10°. The values pass through the URL so the page stays shareable.

No JS? Fill the form by hand. The geolocation button needs JavaScript.